N2DJ Weather Reports


Display with metric or nautical units.
time (UTC)temp
F
wind
direction
speed
MPH
gust
MPH
rain 1hr
in
rain 24hr
in
rain mn
in
humidity
%
barometer
mb
20260905031503 63 333 0.0 0.0 0.00 0.00 0.00 96 1014.4
20260905030006 64 333 0.0 0.0 0.00 0.00 0.00 96 1014.5
20260905024502 65 333 0.0 0.0 0.00 0.00 0.00 96 1014.5
20260905023005 65 333 0.0 0.0 0.00 0.00 0.00 96 1014.6
20260905021501 65 333 0.0 0.0 0.00 0.00 0.00 95 1014.5
20260905020100 66 333 0.0 0.0 0.00 0.00 0.00 95 1014.5
20260905014600 66 333 0.0 0.0 0.00 0.00 0.00 95 1014.4
20260905013059 67 333 0.0 0.0 0.00 0.00 0.00 95 1014.6
20260905011601 67 333 0.0 0.0 0.00 0.00 0.00 94 1014.6
20260905010101 67 333 0.0 1.0 0.00 0.00 0.00 94 1014.7
20260905004601 68 333 0.0 0.0 0.00 0.04 0.00 94 1014.6
20260905003057 68 333 0.0 0.0 0.00 0.04 0.00 93 1014.5
20260905001556 68 333 0.0 1.0 0.00 0.04 0.00 92 1014.2
20260905000056 69 333 0.0 0.0 0.00 0.04 0.00 92 1014.2
20260904234555 69 333 0.0 0.0 0.00 0.24 0.00 91 1014.1
20260904233102 70 333 0.0 0.0 0.00 0.24 0.00 91 1014.1
20260904231555 70 333 0.0 0.0 0.00 0.24 0.00 90 1014.1
20260904230054 71 333 0.0 0.0 0.00 0.24 0.00 89 1014.0
20260904224554 71 333 0.0 0.0 0.00 0.24 0.00 88 1013.8
20260904223054 72 333 0.0 0.0 0.00 0.24 0.00 87 1013.6
20260904221559 72 333 0.0 0.0 0.00 0.24 0.00 85 1013.6
20260904220053 73 333 0.0 0.0 0.00 0.24 0.00 81 1013.1
20260904214551 73 333 0.0 0.0 0.00 0.28 0.00 79 1013.0
20260904213050 73 332 0.0 3.0 0.00 0.28 0.00 79 1013.2
20260904211553 73 338 0.0 0.0 0.00 0.28 0.00 77 1013.3
20260904210048 73 338 0.0 2.0 0.00 0.28 0.00 79 1013.6
20260904204546 74 332 0.0 2.0 0.00 0.31 0.00 77 1013.7
20260904203047 75 332 0.0 4.0 0.00 0.31 0.00 74 1013.6
20260904201545 75 323 2.0 5.0 0.00 0.31 0.00 70 1013.9
20260904200051 76 319 3.0 8.0 0.00 0.31 0.00 70 1013.9
20260904194642 75 25 1.0 7.0 0.00 0.31 0.00 76 1014.1
20260904193046 74 313 1.0 8.0 0.00 0.31 0.00 75 1014.5
20260904191542 75 331 1.0 5.0 0.00 0.31 0.00 73 1014.7
20260904190039 75 330 2.0 8.0 0.00 0.31 0.00 76 1014.9
20260904184558 74 322 0.0 4.0 0.00 0.31 0.00 78 1015.1
20260904183040 74 330 1.0 5.0 0.00 0.31 0.00 76 1015.2
20260904181541 75 322 0.0 6.0 0.00 0.31 0.00 76 1015.2
20260904180049 75 311 1.0 4.0 0.00 0.31 0.00 72 1015.1
20260904174539 76 348 1.0 5.0 0.00 0.31 0.00 73 1015.3
20260904173045 76 335 1.0 5.0 0.00 0.31 0.00 69 1015.3
20260904171535 76 313 3.0 10.0 0.00 0.31 0.00 71 1015.7
20260904170034 76 261 2.0 5.0 0.00 0.31 0.00 70 1015.6
20260904164532 76 326 1.0 8.0 0.00 0.31 0.00 72 1015.9
20260904163030 75 326 2.0 8.0 0.00 0.31 0.00 76 1016.1
20260904161527 74 264 1.0 4.0 0.00 0.31 0.00 75 1016.3
20260904160037 75 306 1.0 5.0 0.00 0.31 0.00 76 1016.2
20260904154523 74 339 2.0 5.0 0.00 0.31 0.00 75 1016.1
20260904153021 74 307 0.0 5.0 0.00 0.31 0.00 81 1015.6
20260904151520 73 277 0.0 1.0 0.00 0.31 0.00 79 1015.8
20260904150015 72 9 0.0 5.0 0.00 0.31 0.00 81 1015.8
20260904144513 72 319 2.0 7.0 0.00 0.31 0.00 80 1015.8
20260904143012 72 263 0.0 3.0 0.00 0.31 0.00 83 1015.4
20260904141508 71 319 0.0 3.0 0.00 0.31 0.00 87 1015.5
20260904140005 70 39 0.0 0.0 0.00 0.31 0.00 91 1015.5
20260904134600 69 319 0.0 3.0 0.00 0.31 0.00 95 1015.6
20260904133058 67 21 0.0 4.0 0.00 0.31 0.00 98 1015.8
20260904131632 67 71 0.0 2.0 0.00 0.31 0.00 99 1015.8
20260904130054 66 70 0.0 1.0 0.00 0.31 0.00 100 1015.8
20260904124554 65 71 0.0 2.0 0.00 0.31 0.00 99 1015.9
20260904123106 65 70 0.0 0.0 0.00 0.31 0.00 99 1016.1
20260904121552 65 70 0.0 0.0 0.00 0.31 0.00 99 1015.7
20260904120050 65 70 0.0 0.0 0.00 0.31 0.00 100 1015.8
20260904114550 64 70 0.0 0.0 0.00 0.31 0.00 99 1015.7
20260904113045 63 70 0.0 0.0 0.00 0.31 0.00 100 1015.3
20260904111551 62 70 0.0 0.0 0.00 0.31 0.00 99 1015.1
20260904110042 62 70 0.0 0.0 0.00 0.31 0.00 99 1015.0
20260904104539 62 70 0.0 0.0 0.00 0.31 0.00 99 1014.9
20260904103042 62 70 0.0 0.0 0.00 0.31 0.00 99 1015.0
20260904101544 63 70 0.0 0.0 0.00 0.31 0.00 99 1015.0
20260904100033 63 70 0.0 0.0 0.00 0.31 0.00 99 1014.9
20260904094531 64 70 0.0 0.0 0.00 0.31 0.00 99 1014.8
20260904093029 64 70 0.0 0.0 0.00 0.31 0.00 99 1014.7
20260904091533 64 70 0.0 0.0 0.00 0.31 0.00 99 1014.7
20260904090029 65 70 0.0 0.0 0.00 0.31 0.00 99 1014.6
20260904084528 65 70 0.0 0.0 0.00 0.31 0.00 99 1014.7
20260904083027 65 70 0.0 0.0 0.00 0.31 0.00 99 1014.8
20260904081526 65 70 0.0 0.0 0.00 0.31 0.00 99 1014.5
20260904080026 64 70 0.0 0.0 0.00 0.31 0.00 99 1014.5
20260904074527 65 70 0.0 0.0 0.00 0.31 0.00 99 1014.4
20260904073124 65 70 0.0 0.0 0.00 0.31 0.00 99 1014.3
20260904071532 65 70 0.0 0.0 0.00 0.31 0.00 99 1014.3
20260904070021 65 70 0.0 0.0 0.00 0.31 0.00 99 1014.2
20260904064521 65 71 0.0 0.0 0.00 0.31 0.00 99 1014.2
20260904063031 65 71 0.0 0.0 0.00 0.31 0.00 98 1014.1
20260904061519 66 70 0.0 0.0 0.00 0.31 0.00 99 1014.0
20260904060015 66 70 0.0 0.0 0.00 0.31 0.00 99 1014.0
20260904054513 66 70 0.0 0.0 0.00 0.31 0.00 98 1014.4
20260904053112 67 71 0.0 0.0 0.00 0.31 0.00 98 1014.4
20260904051508 68 70 0.0 0.0 0.00 0.31 0.00 99 1014.6
20260904050006 68 70 0.0 0.0 0.00 0.31 0.00 99 1014.8
20260904044505 68 71 0.0 0.0 0.00 0.31 0.00 98 1014.6
20260904043004 68 70 0.0 0.0 0.00 0.31 0.00 99 1014.6
20260904041503 68 71 0.0 0.0 0.00 0.31 0.00 99 1014.7
20260904040003 68 70 0.0 0.0 0.00 0.31 0.31 99 1014.6
20260904034501 68 70 0.0 0.0 0.00 0.31 0.31 98 1014.4
20260904033100 68 70 0.0 0.0 0.00 0.31 0.31 98 1014.3